Weather History for Juliana Airport, Saint Maarten, Saint Maartin

Change the Weather History Date:

Sunday, April 13, 2014

  Actual Average Record
Temperature  
Mean Temperature 74 °F -  
Max Temperature 83 °F 83 °F - ()
Min Temperature 64 °F 74 °F - ()
Cooling Degree Days 8    
Growing Degree Days 24 (Base 50)    
Moisture  
Dew Point 66 °F    
Average Humidity 65    
Maximum Humidity 83    
Minimum Humidity 48    
Precipitation  
Precipitation 0.04 in 0.10 in - ()
Sea Level Pressure  
Sea Level Pressure 30.00 in    
Wind  
Wind Speed 9 mph ()    
Max Wind Speed 45 mph    
Max Gust Speed -    
Visibility 6.9 miles    
Events Rain    
T = Trace of Precipitation, MM = Missing Value Source: Averaged Metar Reports

Daily Weather History Graph

Daily Weather History Graph

Search for Another Location

Airport:

Trip Planner

Search our weather history database for the weather conditions in past years. The results will help you decide how hot, cold, wet, or windy it might be!

Date:

Astronomy

Apr. 13, 2014 Rise Set
Actual Time 5:57 AM AST 6:28 PM AST
Civil Twilight 5:35 AM AST 6:50 PM AST
Nautical Twilight 5:09 AM AST 7:16 PM AST
Astronomical Twilight 4:43 AM AST 7:42 PM AST
Moon 5:12 PM AST (4/13) 4:39 AM AST (4/13)
Length of Visible Light 13h 15m
Length of Day
12h 31m
Waxing Gibbous, 97% of the Moon is Illuminated
Apr 13
Waxing Gibbous
Apr 15
Full
Apr 22
Last Quarter
Apr 29
New
May 6
First Quarter

Hourly Weather History & Observations

Time (AST) Temp. Heat Index Dew Point Humidity Pressure Visibility Wind Dir Wind Speed Gust Speed Precip Events Conditions
12:00 AM 77.0 °F - 66.2 °F 69% 30.04 in 6.2 mi East 5.8 mph - N/A   Scattered Clouds
1:00 AM 77.0 °F - 68.0 °F 74% 30.01 in 6.2 mi East 10.4 mph - N/A   Scattered Clouds
2:00 AM 77 °F - 68 °F 66% 29.99 in 19 mi ENE 9.2 mph - -   Partly Cloudy
2:00 AM 77.0 °F - 68.0 °F 74% 29.98 in 6.2 mi ENE 9.2 mph - N/A   Scattered Clouds
3:00 AM 77.0 °F - 68.0 °F 74% 29.95 in 4.3 mi ESE 5.8 mph - N/A Rain Rain Showers
4:00 AM 73.4 °F - 68.0 °F 83% 29.95 in 6.2 mi NE 8.1 mph - N/A   Scattered Clouds
5:00 AM - - 68 °F % 29.97 in 1 mi NNE 44.9 mph - -  
5:00 AM 75.2 °F - 68.0 °F 78% 29.95 in 6.2 mi East 10.4 mph - N/A   Mostly Cloudy
6:00 AM - - - N/A% 29.98 in 6.2 mi East 10.4 mph - N/A   Scattered Clouds
7:00 AM 77.0 °F - 68.0 °F 74% 30.01 in 6.2 mi East 10.4 mph - N/A   Mostly Cloudy
8:00 AM 78 °F - 68 °F 64% 30.04 in 19 mi East 9.2 mph - -   Partly Cloudy
8:00 AM 78.8 °F - 68.0 °F 69% 30.04 in 6.2 mi East 9.2 mph - N/A   Scattered Clouds
9:00 AM 80.6 °F 83.2 °F 68.0 °F 65% 30.04 in 6.2 mi East 10.4 mph - N/A   Scattered Clouds
10:00 AM 80.6 °F 83.2 °F 68.0 °F 65% 30.04 in 6.2 mi ESE 10.4 mph - N/A   Partly Cloudy
11:00 AM 81 °F - 69 °F 60% 30.05 in 25 mi East 9.2 mph - - Rain Light Rain Showers
11:00 AM 80.6 °F 83.9 °F 69.8 °F 70% 30.04 in 6.2 mi East 9.2 mph - N/A   Scattered Clouds
12:00 PM 80.6 °F 84.6 °F 71.6 °F 74% 30.04 in 6.2 mi SE 8.1 mph - N/A   Scattered Clouds
1:00 PM 82.4 °F 84.6 °F 66.2 °F 58% 30.01 in 6.2 mi East 10.4 mph - N/A   Scattered Clouds
2:00 PM 83 °F - 66 °F 48% 29.99 in 37 mi ESE 10.4 mph - -   Partly Cloudy
2:00 PM 64.4 °F - 50.0 °F 59% 29.98 in 6.2 mi East 10.4 mph - N/A   Scattered Clouds
3:00 PM 82.4 °F 84.6 °F 66.2 °F 58% 29.95 in 6.2 mi East 9.2 mph - N/A   Scattered Clouds
4:00 PM 82.4 °F 83.9 °F 64.4 °F 54% 29.95 in 6.2 mi East 10.4 mph - N/A   Partly Cloudy
5:00 PM 81 °F - 65 °F 50% 29.96 in 34 mi East 9.2 mph - -   Scattered Clouds
5:00 PM 80.6 °F 82.7 °F 66.2 °F 61% 29.95 in 6.2 mi East 9.2 mph - N/A   Partly Cloudy
6:00 PM 78.8 °F - 66.2 °F 65% 29.98 in 6.2 mi ENE 12.7 mph - N/A   Partly Cloudy
7:00 PM 78.8 °F - 66.2 °F 65% 29.98 in 6.2 mi East 8.1 mph - N/A   Partly Cloudy
8:00 PM 78 °F - 65 °F 57% 30.01 in 31 mi East 6.9 mph - -   Scattered Clouds
8:00 PM 78.8 °F - 64.4 °F 61% 30.01 in 6.2 mi East 8.1 mph - N/A   Partly Cloudy
9:00 PM 77.0 °F - 64.4 °F 65% 30.01 in 6.2 mi East 8.1 mph - N/A   Scattered Clouds
10:00 PM 77.0 °F - 66.2 °F 69% 30.01 in 6.2 mi East 9.2 mph - N/A   Partly Cloudy
11:00 PM 77 °F - 65 °F 59% 30.02 in 28 mi ENE 5.8 mph - -   Partly Cloudy
11:00 PM 77.0 °F - 64.4 °F 65% 30.01 in 6.2 mi ENE 5.8 mph - N/A   Scattered Clouds